Location: Foulognes
(49.1413°N, 0.8183°W)
Time: 00:25:03
(UTC+00:00)

STARLINK-68 - Pass Details

Date: 21 October 2019
Orbit: 548 x 551 km, 53.0° (Epoch: 20 November)

Event Time Altitude Azimuth Distance (km) Brightness Sun altitude
Rises 18:50:31 0° 285° (WNW) 2,719 8.8 -18.4°
Reaches altitude 10° 18:52:49 10° 290° (WNW) 1,826 7.4 -18.7°
Maximum altitude 18:56:51 51° 7° (N) 701 4.1 -19.4°
Enters shadow 18:57:45 42° 49° (NE) 794 4.1 -19.5°
